TimeCST,TemperatureF,Dew PointF,Humidity,Sea Level PressureIn,VisibilityMPH,Wind Direction,Wind SpeedMPH,Gust SpeedMPH,PrecipitationIn,Events,Conditions,WindDirDegrees,DateUTC
12:15 AM,23.4,22.3,96,29.43,3.0,South,12.7,-,N/A,Snow,Light Snow,190,2014-01-04 06:15:00
12:35 AM,23.7,22.1,94,29.42,7.0,South,16.1,-,N/A,Snow,Light Snow,190,2014-01-04 06:35:00
12:55 AM,23.9,22.1,93,29.40,5.0,South,16.1,-,N/A,Snow,Light Snow,180,2014-01-04 06:55:00
1:15 AM,24.6,22.1,90,29.37,10.0,South,17.3,26.5,N/A,,Overcast,180,2014-01-04 07:15:00
1:35 AM,25.3,22.5,89,29.43,10.0,SSW,15.0,-,N/A,,Overcast,210,2014-01-04 07:35:00
1:55 AM,26.1,23.0,88,29.43,10.0,SSW,11.5,-,N/A,Snow,Light Snow,210,2014-01-04 07:55:00
2:15 AM,26.4,23.5,89,29.42,10.0,SSW,10.4,-,N/A,,Overcast,200,2014-01-04 08:15:00
2:35 AM,26.6,23.9,90,29.44,10.0,SSW,11.5,-,N/A,,Overcast,210,2014-01-04 08:35:00
2:55 AM,27.3,24.6,90,29.45,10.0,SSW,10.4,-,N/A,,Overcast,210,2014-01-04 08:55:00
3:15 AM,28.0,25.5,90,29.45,10.0,SSW,10.4,-,N/A,,Overcast,210,2014-01-04 09:15:00
3:35 AM,28.6,25.9,90,29.45,10.0,SSW,9.2,-,N/A,,Overcast,210,2014-01-04 09:35:00
3:55 AM,29.1,26.6,90,29.45,10.0,WSW,8.1,-,N/A,,Overcast,240,2014-01-04 09:55:00
4:15 AM,30.0,27.7,91,29.46,10.0,WSW,10.4,-,N/A,,Overcast,240,2014-01-04 10:15:00
4:35 AM,30.7,28.4,91,29.47,5.0,West,9.2,-,N/A,,Overcast,260,2014-01-04 10:35:00
4:55 AM,30.2,29.7,98,29.48,3.0,West,6.9,-,N/A,,Overcast,280,2014-01-04 10:55:00
5:15 AM,30.7,30.6,99,29.51,3.0,WNW,11.5,18.4,N/A,Snow,Light Snow,300,2014-01-04 11:15:00
5:35 AM,30.9,29.3,94,29.54,10.0,WNW,16.1,-,N/A,,Overcast,300,2014-01-04 11:35:00
5:55 AM,28.9,25.3,86,29.57,7.0,NW,23.0,29.9,N/A,,Overcast,320,2014-01-04 11:55:00
6:15 AM,27.3,22.6,83,29.59,7.0,NW,17.3,27.6,N/A,,Overcast,320,2014-01-04 12:15:00
6:35 AM,25.5,20.8,82,29.62,7.0,NW,19.6,29.9,N/A,,Overcast,320,2014-01-04 12:35:00
6:55 AM,24.4,19.4,81,29.66,7.0,NW,20.7,26.5,N/A,,Overcast,310,2014-01-04 12:55:00
7:15 AM,23.5,16.9,76,29.67,10.0,NW,20.7,27.6,N/A,,Overcast,320,2014-01-04 13:15:00
7:35 AM,22.8,16.2,76,29.71,10.0,NW,16.1,21.9,N/A,,Overcast,320,2014-01-04 13:35:00
7:55 AM,21.0,14.4,75,29.73,7.0,NW,20.7,25.3,N/A,,Overcast,320,2014-01-04 13:55:00
8:15 AM,19.0,12.2,75,29.76,7.0,NNW,19.6,25.3,N/A,,Overcast,330,2014-01-04 14:15:00
8:35 AM,17.4,10.8,75,29.77,4.0,NNW,21.9,29.9,N/A,Snow,Light Snow,330,2014-01-04 14:35:00
8:55 AM,16.0,9.5,76,29.79,5.0,NW,18.4,26.5,N/A,Snow,Light Snow,320,2014-01-04 14:55:00
9:15 AM,14.2,7.5,75,29.84,4.0,NW,19.6,25.3,N/A,Snow,Light Snow,320,2014-01-04 15:15:00
9:35 AM,14.0,7.0,74,29.86,7.0,NNW,19.6,24.2,N/A,,Overcast,330,2014-01-04 15:35:00
9:55 AM,13.5,6.3,73,29.86,7.0,NNW,17.3,-,N/A,,Overcast,340,2014-01-04 15:55:00
10:15 AM,14.0,6.8,73,29.88,7.0,NNW,17.3,-,N/A,Snow,Light Snow,340,2014-01-04 16:15:00
10:35 AM,14.0,7.0,74,29.87,5.0,NW,17.3,24.2,N/A,,Haze,320,2014-01-04 16:35:00
10:55 AM,13.6,5.5,70,29.89,7.0,NW,18.4,25.3,N/A,,Overcast,320,2014-01-04 16:55:00
11:15 AM,13.3,5.4,71,29.90,7.0,NW,16.1,21.9,N/A,,Overcast,310,2014-01-04 17:15:00
11:35 AM,13.6,4.5,67,29.90,10.0,NW,17.3,-,N/A,,Scattered Clouds,320,2014-01-04 17:35:00
11:55 AM,13.6,4.5,67,29.89,10.0,NNW,15.0,-,N/A,,Scattered Clouds,340,2014-01-04 17:55:00
12:15 PM,13.8,4.1,65,29.90,10.0,NNW,13.8,19.6,N/A,,Clear,330,2014-01-04 18:15:00
12:35 PM,14.0,4.1,65,29.91,10.0,NW,9.2,-,N/A,,Scattered Clouds,320,2014-01-04 18:35:00
12:55 PM,14.0,4.1,65,29.91,10.0,WNW,10.4,16.1,N/A,,Clear,290,2014-01-04 18:55:00
1:15 PM,14.0,3.6,63,29.92,10.0,NW,12.7,-,N/A,,Clear,320,2014-01-04 19:15:00
1:35 PM,14.0,3.9,64,29.93,10.0,WNW,13.8,-,N/A,,Clear,300,2014-01-04 19:35:00
1:55 PM,13.1,2.8,64,29.95,10.0,NW,13.8,-,N/A,,Clear,320,2014-01-04 19:55:00
2:15 PM,13.5,2.7,62,29.96,10.0,NW,9.2,-,N/A,,Clear,320,2014-01-04 20:15:00
2:35 PM,12.9,2.7,64,29.97,10.0,NW,11.5,-,N/A,,Clear,310,2014-01-04 20:35:00
2:55 PM,12.7,2.1,63,29.98,10.0,NW,18.4,21.9,N/A,,Clear,310,2014-01-04 20:55:00
3:15 PM,12.2,1.4,62,30.00,10.0,NW,11.5,18.4,N/A,,Clear,320,2014-01-04 21:15:00
3:35 PM,12.0,1.4,62,30.02,10.0,NNW,11.5,-,N/A,,Clear,330,2014-01-04 21:35:00
3:55 PM,11.7,1.2,63,30.03,10.0,NW,9.2,-,N/A,,Clear,320,2014-01-04 21:55:00
4:15 PM,10.4,0.9,65,30.03,10.0,NW,8.1,-,N/A,,Clear,320,2014-01-04 22:15:00
4:35 PM,9.5,0.5,67,30.04,10.0,WNW,11.5,16.1,N/A,,Clear,300,2014-01-04 22:35:00
4:55 PM,10.0,-0.4,63,30.06,10.0,WNW,8.1,-,N/A,,Clear,300,2014-01-04 22:55:00
5:15 PM,9.1,-1.3,63,30.06,10.0,WNW,6.9,-,N/A,,Clear,300,2014-01-04 23:15:00
5:35 PM,8.4,-1.7,64,30.07,10.0,WNW,6.9,-,N/A,,Clear,300,2014-01-04 23:35:00
5:55 PM,7.7,-2.2,64,30.07,10.0,WNW,8.1,-,N/A,,Clear,290,2014-01-04 23:55:00
6:15 PM,8.2,-1.7,64,30.07,10.0,NW,10.4,-,N/A,,Clear,310,2014-01-05 00:15:00
6:35 PM,7.5,-2.2,65,30.09,10.0,WNW,9.2,-,N/A,,Clear,300,2014-01-05 00:35:00
6:55 PM,7.0,-2.4,66,30.11,10.0,WNW,9.2,-,N/A,,Clear,290,2014-01-05 00:55:00
7:15 PM,6.6,-3.3,64,30.12,10.0,WNW,9.2,-,N/A,,Clear,300,2014-01-05 01:15:00
7:35 PM,6.6,-4.0,62,30.12,10.0,WNW,9.2,-,N/A,,Clear,300,2014-01-05 01:35:00
7:55 PM,5.9,-4.4,63,30.13,10.0,WNW,11.5,-,N/A,,Clear,300,2014-01-05 01:55:00
8:15 PM,5.4,-5.1,62,30.13,10.0,NW,13.8,-,N/A,,Clear,310,2014-01-05 02:15:00
8:35 PM,4.5,-5.8,63,30.14,10.0,WNW,11.5,-,N/A,,Clear,300,2014-01-05 02:35:00
8:55 PM,3.7,-6.3,63,30.16,10.0,WNW,10.4,-,N/A,,Clear,300,2014-01-05 02:55:00
9:15 PM,2.3,-7.2,64,30.16,10.0,NW,10.4,-,N/A,,Clear,310,2014-01-05 03:15:00
9:35 PM,1.4,-7.6,66,30.16,10.0,NW,10.4,-,N/A,,Clear,310,2014-01-05 03:35:00
9:55 PM,0.7,-7.8,68,30.17,10.0,NW,10.4,-,N/A,,Clear,310,2014-01-05 03:55:00
10:15 PM,0.1,-8.0,69,30.18,10.0,WNW,8.1,-,N/A,,Clear,300,2014-01-05 04:15:00
10:35 PM,-0.9,-8.5,70,30.19,10.0,WNW,8.1,-,N/A,,Clear,300,2014-01-05 04:35:00
10:55 PM,-1.3,-8.5,72,30.19,10.0,WNW,8.1,-,N/A,,Clear,300,2014-01-05 04:55:00
11:15 PM,-1.8,-9.2,71,30.20,10.0,WNW,6.9,-,N/A,,Clear,300,2014-01-05 05:15:00
11:35 PM,-2.6,-9.6,72,30.20,10.0,WNW,9.2,-,N/A,,Clear,300,2014-01-05 05:35:00
11:55 PM,-3.1,-10.1,72,30.22,10.0,West,5.8,-,N/A,,Clear,280,2014-01-05 05:55:00